,,Stat6,,Stat2,,Stat8,,Stat9,,Stat10,,Wind1,,Wind1,
time,status,PA1M_AVG,status,PR1M_SUM,status,RH1M_AVG,status,SR1M_AVG,status,TA1M_AVG,status,W1dAve1m,status,W1sAve1m,
2006-01-19, 00:00:00,VALID,918.445,VALID,0,VALID,100,VALID,0.20377,VALID,18.4943,VALID,256,VALID,0.199963,
2006-01-19, 00:01:00,VALID,918.418,VALID,0,VALID,100,VALID,0.186789,VALID,18.4975,VALID,255,VALID,0.0409226,
2006-01-19, 00:02:00,VALID,918.417,VALID,0,VALID,100,VALID,0.135847,VALID,18.5137,VALID,340,VALID,0.261896,
2006-01-19, 00:03:00,VALID,918.408,VALID,0,VALID,100,VALID,0.186789,VALID,18.5065,VALID,4,VALID,0.300872,
2006-01-19, 00:04:00,VALID,918.406,VALID,0,VALID,100,VALID,0.186789,VALID,18.5132,VALID,4,VALID,0.0074314,
2006-01-19, 00:05:00,VALID,918.401,VALID,0,VALID,100,VALID,0.186789,VALID,18.5037,VALID,4,VALID,0.283594,
2006-01-19, 00:06:00,VALID,918.419,VALID,0,VALID,100,VALID,0.0509425,VALID,18.4959,VALID,4,VALID,0.141992,
2006-01-19, 00:07:00,VALID,918.422,VALID,0,VALID,100,VALID,0.101885,VALID,18.4671,VALID,328,VALID,0.506288,
2006-01-19, 00:08:00,VALID,918.423,VALID,0,VALID,100,VALID,0.118866,VALID,18.4532,VALID,296,VALID,0.70476,
2006-01-19, 00:09:00,VALID,918.414,VALID,0,VALID,100,VALID,0.135847,VALID,18.4666,VALID,296,VALID,0.644985,
2006-01-19, 00:10:00,VALID,918.394,VALID,0,VALID,100,VALID,0.0849042,VALID,18.4698,VALID,342,VALID,0.822917,
2006-01-19, 00:11:00,VALID,918.386,VALID,0,VALID,100,VALID,0.101885,VALID,18.45,VALID,355,VALID,1.27416,
2006-01-19, 00:12:00,VALID,918.379,VALID,0,VALID,100,VALID,0.118866,VALID,18.4082,VALID,8,VALID,1.52195,
2006-01-19, 00:13:00,VALID,918.391,VALID,0,VALID,100,VALID,0.118866,VALID,18.389,VALID,7,VALID,1.0465,
2006-01-19, 00:14:00,VALID,918.392,VALID,0,VALID,100,VALID,0.118866,VALID,18.3758,VALID,1,VALID,0.883721,
2006-01-19, 00:15:00,VALID,918.392,VALID,0,VALID,100,VALID,0.101885,VALID,18.3661,VALID,332,VALID,1.0158,
2006-01-19, 00:16:00,VALID,918.385,VALID,0,VALID,100,VALID,0.0849042,VALID,18.3855,VALID,319,VALID,0.490189,
2006-01-19, 00:17:00,VALID,918.384,VALID,0,VALID,100,VALID,0.0679233,VALID,18.4151,VALID,340,VALID,0.496394,
2006-01-19, 00:18:00,VALID,918.379,VALID,0,VALID,100,VALID,0.0849042,VALID,18.4377,VALID,341,VALID,0.539773,
2006-01-19, 00:19:00,VALID,918.357,VALID,0,VALID,100,VALID,0.101885,VALID,18.4601,VALID,341,VALID,0.105824,
2006-01-19, 00:20:00,VALID,918.327,VALID,0,VALID,100,VALID,0.101885,VALID,18.4668,VALID,349,VALID,0.358842,
2006-01-19, 00:21:00,VALID,918.305,VALID,0,VALID,100,VALID,0.0849042,VALID,18.4959,VALID,352,VALID,0.661966,
2006-01-19, 00:22:00,VALID,918.289,VALID,0,VALID,100,VALID,0.0679233,VALID,18.48,VALID,347,VALID,0.464489,
2006-01-19, 00:23:00,VALID,918.268,VALID,0,VALID,100,VALID,0.101885,VALID,18.4765,VALID,353,VALID,0.480469,
2006-01-19, 00:24:00,VALID,918.245,VALID,0,VALID,100,VALID,0.0679233,VALID,18.4735,VALID,350,VALID,0.49535,
2006-01-19, 00:25:00,VALID,918.225,VALID,0,VALID,100,VALID,0.0849042,VALID,18.4832,VALID,352,VALID,0.5,
2006-01-19, 00:26:00,VALID,918.237,VALID,0,VALID,100,VALID,0.0679233,VALID,18.4634,VALID,351,VALID,0.632813,
2006-01-19, 00:27:00,VALID,918.249,VALID,0,VALID,100,VALID,0.0509425,VALID,18.431,VALID,334,VALID,0.839286,
2006-01-19, 00:28:00,VALID,918.249,VALID,0,VALID,100,VALID,0.101885,VALID,18.4024,VALID,339,VALID,0.454915,
2006-01-19, 00:29:00,VALID,918.231,VALID,0,VALID,100,VALID,0.0849042,VALID,18.4084,VALID,339,VALID,0.328311,
2006-01-19, 00:30:00,VALID,918.23,VALID,0,VALID,100,VALID,0.118866,VALID,18.4509,VALID,352,VALID,0.616493,
2006-01-19, 00:31:00,VALID,918.221,VALID,0,VALID,100,VALID,0.101885,VALID,18.447,VALID,12,VALID,0.88529,
2006-01-19, 00:32:00,VALID,918.201,VALID,0,VALID,100,VALID,0.0849042,VALID,18.4604,VALID,357,VALID,0.649528,
2006-01-19, 00:33:00,VALID,918.181,VALID,0,VALID,100,VALID,0.118866,VALID,18.4698,VALID,357,VALID,0.642933,
2006-01-19, 00:34:00,VALID,918.184,VALID,0,VALID,100,VALID,0.101885,VALID,18.4795,VALID,5,VALID,0.75362,
2006-01-19, 00:35:00,VALID,918.193,VALID,0,VALID,100,VALID,0.101885,VALID,18.4793,VALID,349,VALID,0.433036,
2006-01-19, 00:36:00,VALID,918.172,VALID,0,VALID,100,VALID,0.101885,VALID,18.4825,VALID,339,VALID,0.437686,
2006-01-19, 00:37:00,VALID,918.161,VALID,0,VALID,100,VALID,0.101885,VALID,18.473,VALID,351,VALID,0.689303,
2006-01-19, 00:38:00,VALID,918.153,VALID,0,VALID,100,VALID,0.101885,VALID,18.5021,VALID,2,VALID,0.782584,
2006-01-19, 00:39:01,VALID,918.163,VALID,0,VALID,100,VALID,0.135847,VALID,18.5017,VALID,359,VALID,0.491071,
2006-01-19, 00:40:00,VALID,918.178,VALID,0,VALID,100,VALID,0.101885,VALID,18.4991,VALID,8,VALID,0.25372,
2006-01-19, 00:41:00,VALID,918.154,VALID,0,VALID,100,VALID,0.118866,VALID,18.476,VALID,12,VALID,0.290234,
2006-01-19, 00:42:00,VALID,918.152,VALID,0,VALID,100,VALID,0.0849042,VALID,18.4857,VALID,26,VALID,0.65997,
2006-01-19, 00:43:00,VALID,918.15,VALID,0,VALID,100,VALID,0.101885,VALID,18.5024,VALID,19,VALID,0.323509,
2006-01-19, 00:44:01,VALID,918.147,VALID,0,VALID,100,VALID,0.101885,VALID,18.5153,VALID,15,VALID,0.0864955,
2006-01-19, 00:45:00,VALID,918.155,VALID,0,VALID,100,VALID,0.101885,VALID,18.5077,VALID,16,VALID,0.173651,
2006-01-19, 00:46:00,VALID,918.164,VALID,0,VALID,100,VALID,0.135847,VALID,18.5338,VALID,16,VALID,0.202943,
2006-01-19, 00:47:00,VALID,918.16,VALID,0,VALID,100,VALID,0.101885,VALID,18.5215,VALID,4,VALID,0.173633,
2006-01-19, 00:48:00,VALID,918.159,VALID,0,VALID,100,VALID,0.101885,VALID,18.4947,VALID,354,VALID,0.0284091,
2006-01-19, 00:49:00,VALID,918.168,VALID,0,VALID,100,VALID,0.101885,VALID,18.4887,VALID,354,VALID,0,
2006-01-19, 00:50:01,VALID,918.178,VALID,0,VALID,100,VALID,0.135847,VALID,18.4987,VALID,314,VALID,0.320126,
2006-01-19, 00:51:00,VALID,918.192,VALID,0,VALID,100,VALID,0.20377,VALID,18.4876,VALID,291,VALID,0.130451,
2006-01-19, 00:52:00,VALID,918.188,VALID,0,VALID,100,VALID,0.20377,VALID,18.4781,VALID,291,VALID,0.0141715,
2006-01-19, 00:53:00,VALID,918.212,VALID,0,VALID,100,VALID,0.186789,VALID,18.5107,VALID,291,VALID,0.00093006,
2006-01-19, 00:54:01,VALID,918.213,VALID,0,VALID,100,VALID,0.220751,VALID,18.5328,VALID,291,VALID,0.0123355,
2006-01-19, 00:55:00,VALID,918.215,VALID,0,VALID,100,VALID,0.169808,VALID,18.5462,VALID,291,VALID,0,
2006-01-19, 00:56:01,VALID,918.214,VALID,0,VALID,100,VALID,0.20377,VALID,18.5522,VALID,291,VALID,0.0358232,
2006-01-19, 00:57:00,VALID,918.218,VALID,0,VALID,100,VALID,0.169808,VALID,18.5518,VALID,345,VALID,0.323509,
2006-01-19, 00:58:00,VALID,918.218,VALID,0,VALID,100,VALID,0.220751,VALID,18.5751,VALID,348,VALID,0,
2006-01-19, 00:59:00,VALID,918.2,VALID,0,VALID,100,VALID,0.220751,VALID,18.5647,VALID,348,VALID,0.106534,
2006-01-19, 01:00:00,VALID,918.192,VALID,0,VALID,100,VALID,0.220751,VALID,18.5682,VALID,4,VALID,0.451172,
2006-01-19, 01:01:00,VALID,918.174,VALID,0,VALID,100,VALID,0.20377,VALID,18.5557,VALID,2,VALID,0.155903,
2006-01-19, 01:02:00,VALID,918.173,VALID,0,VALID,100,VALID,0.237732,VALID,18.5485,VALID,2,VALID,0.0985863,
2006-01-19, 01:03:00,VALID,918.163,VALID,0,VALID,100,VALID,0.20377,VALID,18.5227,VALID,2,VALID,0.10992,
2006-01-19, 01:04:01,VALID,918.153,VALID,0,VALID,100,VALID,0.220751,VALID,18.4938,VALID,2,VALID,0.00390625,
2006-01-19, 01:05:00,VALID,918.141,VALID,0,VALID,100,VALID,0.20377,VALID,18.4975,VALID,2,VALID,0.00111607,
2006-01-19, 01:06:00,VALID,918.124,VALID,0,VALID,100,VALID,0.118866,VALID,18.4887,VALID,2,VALID,0,
2006-01-19, 01:07:00,VALID,918.119,VALID,0,VALID,100,VALID,0.118866,VALID,18.495,VALID,2,VALID,0.000390625,
2006-01-19, 01:08:01,VALID,918.119,VALID,0,VALID,100,VALID,0.135847,VALID,18.5116,VALID,2,VALID,0.225632,
2006-01-19, 01:09:00,VALID,918.102,VALID,0,VALID,100,VALID,0.118866,VALID,18.5148,VALID,2,VALID,0.134766,
2006-01-19, 01:10:01,VALID,918.099,VALID,0,VALID,100,VALID,0.118866,VALID,18.5178,VALID,2,VALID,0.166016,
2006-01-19, 01:11:00,VALID,918.079,VALID,0,VALID,100,VALID,0.118866,VALID,18.5174,VALID,1,VALID,0.0234375,
2006-01-19, 01:12:00,VALID,918.091,VALID,0,VALID,100,VALID,0.118866,VALID,18.5215,VALID,271,VALID,0.148438,
2006-01-19, 01:13:00,VALID,918.103,VALID,0,VALID,100,VALID,0.135847,VALID,18.5116,VALID,267,VALID,0.00218023,
2006-01-19, 01:14:00,VALID,918.098,VALID,0,VALID,100,VALID,0.101885,VALID,18.4984,VALID,267,VALID,0.000726744,
2006-01-19, 01:15:01,VALID,918.122,VALID,0,VALID,100,VALID,0.101885,VALID,18.4855,VALID,267,VALID,0.14968,
2006-01-19, 01:16:01,VALID,918.121,VALID,0,VALID,100,VALID,0.118866,VALID,18.4433,VALID,267,VALID,0,
2006-01-19, 01:17:00,VALID,918.113,VALID,0,VALID,100,VALID,0.101885,VALID,18.4497,VALID,267,VALID,0.00114329,
2006-01-19, 01:18:01,VALID,918.101,VALID,0,VALID,100,VALID,0.101885,VALID,18.4206,VALID,269,VALID,0.00111607,
2006-01-19, 01:19:00,VALID,918.11,VALID,0,VALID,100,VALID,0.118866,VALID,18.4405,VALID,329,VALID,0.445126,
2006-01-19, 01:20:00,VALID,918.1,VALID,0,VALID,100,VALID,0.135847,VALID,18.4597,VALID,6,VALID,0.488477,
2006-01-19, 01:21:00,VALID,918.092,VALID,0,VALID,100,VALID,0.135847,VALID,18.4726,VALID,14,VALID,0.751603,
2006-01-19, 01:22:01,VALID,918.078,VALID,0,VALID,100,VALID,0.135847,VALID,18.4597,VALID,22,VALID,0.634588,
2006-01-19, 01:23:01,VALID,918.062,VALID,0,VALID,100,VALID,0.101885,VALID,18.4698,VALID,22,VALID,0.639482,
2006-01-19, 01:24:00,VALID,918.056,VALID,0,VALID,100,VALID,0.118866,VALID,18.4534,VALID,19,VALID,0.652644,
2006-01-19, 01:25:01,VALID,918.044,VALID,0,VALID,100,VALID,0.135847,VALID,18.434,VALID,16,VALID,0.737424,
2006-01-19, 01:26:00,VALID,918.012,VALID,0,VALID,100,VALID,0.118866,VALID,18.4211,VALID,17,VALID,0.775724,
2006-01-19, 01:27:01,VALID,917.978,VALID,0,VALID,100,VALID,0.118866,VALID,18.4019,VALID,25,VALID,0.631288,
2006-01-19, 01:28:01,VALID,917.954,VALID,0,VALID,100,VALID,0.135847,VALID,18.3629,VALID,25,VALID,0.569741,
2006-01-19, 01:29:01,VALID,917.931,VALID,0,VALID,100,VALID,0.135847,VALID,18.3564,VALID,25,VALID,0.422991,
2006-01-19, 01:30:00,VALID,917.894,VALID,0,VALID,100,VALID,0.118866,VALID,18.3338,VALID,24,VALID,0.334704,
2006-01-19, 01:31:01,VALID,917.848,VALID,0,VALID,100,VALID,0.118866,VALID,18.3144,VALID,24,VALID,0,
2006-01-19, 01:32:00,VALID,917.8,VALID,0,VALID,100,VALID,0.118866,VALID,18.2918,VALID,24,VALID,0.3125,
2006-01-19, 01:33:00,VALID,917.773,VALID,0,VALID,100,VALID,0.0849042,VALID,18.2726,VALID,20,VALID,0.462936,
2006-01-19, 01:34:00,VALID,917.735,VALID,0,VALID,100,VALID,0.101885,VALID,18.2659,VALID,19,VALID,0.175,
2006-01-19, 01:35:00,VALID,917.715,VALID,0,VALID,100,VALID,0.118866,VALID,18.2495,VALID,360,VALID,0.410836,
2006-01-19, 01:36:00,VALID,917.68,VALID,0,VALID,100,VALID,0.118866,VALID,18.2562,VALID,333,VALID,0.423234,
2006-01-19, 01:37:01,VALID,917.658,VALID,0,VALID,100,VALID,0.118866,VALID,18.2491,VALID,10,VALID,1.30971,
2006-01-19, 01:38:00,VALID,917.642,VALID,0,VALID,100,VALID,0.152827,VALID,18.2632,VALID,28,VALID,0.710007,
2006-01-19, 01:39:00,VALID,917.598,VALID,0,VALID,100,VALID,0.101885,VALID,18.2405,VALID,326,VALID,0.20625,
2006-01-19, 01:40:00,VALID,917.57,VALID,0,VALID,100,VALID,0.135847,VALID,18.2341,VALID,333,VALID,0.271439,
2006-01-19, 01:41:00,VALID,917.541,VALID,0,VALID,100,VALID,0.135847,VALID,18.2338,VALID,351,VALID,0.421875,
2006-01-19, 01:42:01,VALID,917.517,VALID,0,VALID,100,VALID,0.118866,VALID,18.2179,VALID,351,VALID,0.62173,
2006-01-19, 01:43:01,VALID,917.492,VALID,0,VALID,100,VALID,0.118866,VALID,18.1916,VALID,358,VALID,0.565044,
2006-01-19, 01:44:00,VALID,917.492,VALID,0,VALID,100,VALID,0.0849042,VALID,18.1787,VALID,21,VALID,0.453472,
2006-01-19, 01:45:01,VALID,917.485,VALID,0,VALID,100,VALID,0.101885,VALID,18.153,VALID,11,VALID,0.397135,
2006-01-19, 01:46:01,VALID,917.492,VALID,0,VALID,100,VALID,0.118866,VALID,18.1433,VALID,9,VALID,0.381836,
2006-01-19, 01:47:00,VALID,917.502,VALID,0,VALID,100,VALID,0.101885,VALID,18.1272,VALID,2,VALID,0.46733,
2006-01-19, 01:48:00,VALID,917.502,VALID,0,VALID,100,VALID,0.118866,VALID,18.1304,VALID,352,VALID,0.68407,
2006-01-19, 01:49:01,VALID,917.494,VALID,0,VALID,100,VALID,0.135847,VALID,18.1401,VALID,346,VALID,0.652344,
2006-01-19, 01:50:00,VALID,917.509,VALID,0,VALID,100,VALID,0.101885,VALID,18.1302,VALID,349,VALID,0.77793,
2006-01-19, 01:51:00,VALID,917.516,VALID,0,VALID,100,VALID,0.186789,VALID,18.129,VALID,360,VALID,0.752131,
2006-01-19, 01:52:00,VALID,917.52,VALID,0,VALID,100,VALID,0.135847,VALID,18.123,VALID,1,VALID,0.758371,
2006-01-19, 01:53:01,VALID,917.512,VALID,0,VALID,100,VALID,0.186789,VALID,18.1002,VALID,356,VALID,0.823552,
2006-01-19, 01:54:01,VALID,917.512,VALID,0,VALID,100,VALID,0.169808,VALID,18.0937,VALID,342,VALID,0.986852,
2006-01-19, 01:55:01,VALID,917.524,VALID,0,VALID,100,VALID,0.152827,VALID,18.1131,VALID,332,VALID,0.746548,
2006-01-19, 01:56:00,VALID,917.526,VALID,0,VALID,100,VALID,0.169808,VALID,18.1198,VALID,360,VALID,0.483487,
2006-01-19, 01:57:00,VALID,917.501,VALID,0,VALID,100,VALID,0.169808,VALID,18.129,VALID,317,VALID,0.535823,
2006-01-19, 01:58:00,VALID,917.484,VALID,0,VALID,100,VALID,0.20377,VALID,18.1519,VALID,317,VALID,0.3391,
2006-01-19, 01:59:01,VALID,917.467,VALID,0,VALID,100,VALID,0.20377,VALID,18.1554,VALID,333,VALID,0.479759,
2006-01-19, 02:00:00,VALID,917.457,VALID,0,VALID,100,VALID,0.152827,VALID,18.1422,VALID,336,VALID,0.574886,
2006-01-19, 02:01:00,VALID,917.444,VALID,0,VALID,100,VALID,0.169808,VALID,18.0933,VALID,355,VALID,0.639583,
2006-01-19, 02:02:00,VALID,917.443,VALID,0,VALID,100,VALID,0.186789,VALID,18.0741,VALID,355,VALID,0.607292,
2006-01-19, 02:03:00,VALID,917.444,VALID,0,VALID,100,VALID,0.20377,VALID,18.0554,VALID,355,VALID,0.571289,
2006-01-19, 02:04:00,VALID,917.447,VALID,0,VALID,100,VALID,0.135847,VALID,18.0194,VALID,353,VALID,0.886052,
2006-01-19, 02:05:00,VALID,917.454,VALID,0,VALID,100,VALID,0.169808,VALID,18.0198,VALID,341,VALID,0.804688,
2006-01-19, 02:06:00,VALID,917.466,VALID,0,VALID,100,VALID,0.135847,VALID,18.0233,VALID,345,VALID,0.761905,
2006-01-19, 02:07:00,VALID,917.46,VALID,0,VALID,100,VALID,0.152827,VALID,18.0196,VALID,4,VALID,0.995427,
2006-01-19, 02:08:01,VALID,917.446,VALID,0,VALID,100,VALID,0.152827,VALID,18.0358,VALID,358,VALID,0.678597,
2006-01-19, 02:09:00,VALID,917.431,VALID,0,VALID,100,VALID,0.169808,VALID,18.0427,VALID,356,VALID,0.509233,
2006-01-19, 02:10:00,VALID,917.406,VALID,0,VALID,100,VALID,0.20377,VALID,18.0522,VALID,339,VALID,0.308117,
2006-01-19, 02:11:00,VALID,917.379,VALID,0,VALID,100,VALID,0.186789,VALID,18.0614,VALID,304,VALID,0.0978423,
2006-01-19, 02:12:00,VALID,917.354,VALID,0,VALID,100,VALID,0.169808,VALID,18.0746,VALID,304,VALID,0.347317,
2006-01-19, 02:13:00,VALID,917.359,VALID,0,VALID,100,VALID,0.186789,VALID,18.0847,VALID,304,VALID,0.1875,
2006-01-19, 02:14:00,VALID,917.351,VALID,0,VALID,100,VALID,0.135847,VALID,18.0847,VALID,304,VALID,0.210193,
2006-01-19, 02:15:01,VALID,917.342,VALID,0,VALID,100,VALID,0.169808,VALID,18.1071,VALID,304,VALID,0.365885,
2006-01-19, 02:16:00,VALID,917.357,VALID,0,VALID,100,VALID,0.169808,VALID,18.114,VALID,304,VALID,0.139648,
2006-01-19, 02:17:00,VALID,917.359,VALID,0,VALID,100,VALID,0.135847,VALID,18.1069,VALID,304,VALID,0.226367,
2006-01-19, 02:18:01,VALID,917.35,VALID,0,VALID,100,VALID,0.152827,VALID,18.0976,VALID,304,VALID,0.0206597,
2006-01-19, 02:19:00,VALID,917.354,VALID,0,VALID,100,VALID,0.135847,VALID,18.0949,VALID,304,VALID,0.0152616,
2006-01-19, 02:20:00,VALID,917.36,VALID,0,VALID,100,VALID,0.152827,VALID,18.0914,VALID,304,VALID,0.199396,
2006-01-19, 02:21:01,VALID,917.362,VALID,0,VALID,100,VALID,0.152827,VALID,18.078,VALID,304,VALID,0.17721,
2006-01-19, 02:22:00,VALID,917.334,VALID,0,VALID,100,VALID,0.152827,VALID,18.0909,VALID,304,VALID,0.094308,
2006-01-19, 02:23:01,VALID,917.323,VALID,0,VALID,100,VALID,0.118866,VALID,18.0879,VALID,304,VALID,0.154154,
2006-01-19, 02:24:00,VALID,917.298,VALID,0,VALID,100,VALID,0.135847,VALID,18.114,VALID,304,VALID,0.063244,
2006-01-19, 02:25:00,VALID,917.28,VALID,0,VALID,100,VALID,0.152827,VALID,18.1043,VALID,304,VALID,0,
2006-01-19, 02:26:00,VALID,917.271,VALID,0,VALID,100,VALID,0.169808,VALID,18.1011,VALID,304,VALID,0,
2006-01-19, 02:27:01,VALID,917.262,VALID,0,VALID,100,VALID,0.118866,VALID,18.0748,VALID,304,VALID,0,
2006-01-19, 02:28:00,VALID,917.26,VALID,0,VALID,100,VALID,0.135847,VALID,18.0884,VALID,304,VALID,0.130682,
2006-01-19, 02:29:00,VALID,917.267,VALID,0,VALID,100,VALID,0.186789,VALID,18.0847,VALID,304,VALID,0.0141369,
2006-01-19, 02:30:01,VALID,917.25,VALID,0,VALID,100,VALID,0.186789,VALID,18.0743,VALID,304,VALID,0.00228659,
2006-01-19, 02:31:00,VALID,917.22,VALID,0,VALID,100,VALID,0.169808,VALID,18.0711,VALID,304,VALID,0,
2006-01-19, 02:32:01,VALID,917.203,VALID,0,VALID,100,VALID,0.186789,VALID,18.0519,VALID,304,VALID,0,
2006-01-19, 02:33:00,VALID,917.191,VALID,0,VALID,100,VALID,0.169808,VALID,18.036,VALID,304,VALID,0,
2006-01-19, 02:34:00,VALID,917.18,VALID,0,VALID,100,VALID,0.186789,VALID,18.0101,VALID,304,VALID,0,
2006-01-19, 02:35:01,VALID,917.16,VALID,0,VALID,100,VALID,0.152827,VALID,18.0002,VALID,304,VALID,0,
2006-01-19, 02:36:00,VALID,917.156,VALID,0,VALID,100,VALID,0.0849042,VALID,17.9854,VALID,304,VALID,0,
2006-01-19, 02:37:01,VALID,917.156,VALID,0,VALID,100,VALID,0.101885,VALID,17.982,VALID,304,VALID,0,
2006-01-19, 02:38:01,VALID,917.158,VALID,0,VALID,100,VALID,0.101885,VALID,17.9561,VALID,304,VALID,0,
2006-01-19, 02:39:01,VALID,917.182,VALID,0,VALID,100,VALID,0.101885,VALID,17.9563,VALID,304,VALID,0,
2006-01-19, 02:40:00,VALID,917.191,VALID,0,VALID,100,VALID,0.118866,VALID,17.9697,VALID,304,VALID,0,
2006-01-19, 02:41:01,VALID,917.199,VALID,0,VALID,100,VALID,0.101885,VALID,17.9402,VALID,304,VALID,0,
2006-01-19, 02:42:00,VALID,917.191,VALID,0,VALID,100,VALID,0.0509425,VALID,17.9436,VALID,304,VALID,0.102965,
2006-01-19, 02:43:00,VALID,917.202,VALID,0,VALID,100,VALID,0.0509425,VALID,17.9508,VALID,304,VALID,0.0363372,
2006-01-19, 02:44:01,VALID,917.204,VALID,0,VALID,100,VALID,0.0679233,VALID,17.9238,VALID,306,VALID,0.269717,
2006-01-19, 02:45:01,VALID,917.199,VALID,0,VALID,100,VALID,0.0339617,VALID,17.9145,VALID,339,VALID,0.422828,
2006-01-19, 02:46:01,VALID,917.205,VALID,0,VALID,100,VALID,0.101885,VALID,17.9078,VALID,339,VALID,0.398247,
2006-01-19, 02:47:01,VALID,917.213,VALID,0,VALID,100,VALID,0.0679233,VALID,17.9339,VALID,351,VALID,0.709263,
2006-01-19, 02:48:01,VALID,917.225,VALID,0,VALID,100,VALID,0.101885,VALID,17.9565,VALID,19,VALID,0.611235,
2006-01-19, 02:49:01,VALID,917.197,VALID,0,VALID,100,VALID,0.0509425,VALID,17.9727,VALID,24,VALID,0.663194,
2006-01-19, 02:50:00,VALID,917.201,VALID,0,VALID,100,VALID,0.0679233,VALID,17.9725,VALID,19,VALID,0.464026,
2006-01-19, 02:51:01,VALID,917.195,VALID,0,VALID,100,VALID,0.169808,VALID,17.9841,VALID,19,VALID,0.254278,
2006-01-19, 02:52:01,VALID,917.215,VALID,0,VALID,100,VALID,0.152827,VALID,17.9972,VALID,19,VALID,0,
2006-01-19, 02:53:01,VALID,917.221,VALID,0,VALID,100,VALID,0.169808,VALID,17.9972,VALID,19,VALID,0,
2006-01-19, 02:54:01,VALID,917.207,VALID,0,VALID,100,VALID,0.169808,VALID,18.0032,VALID,19,VALID,0,
2006-01-19, 02:55:01,VALID,917.197,VALID,0,VALID,100,VALID,0.186789,VALID,18.0228,VALID,19,VALID,0.184593,
2006-01-19, 02:56:01,VALID,917.159,VALID,0,VALID,100,VALID,0.169808,VALID,18.0358,VALID,19,VALID,0.18564,
2006-01-19, 02:57:01,VALID,917.167,VALID,0,VALID,100,VALID,0.186789,VALID,18.0491,VALID,351,VALID,0.625372,
2006-01-19, 02:58:00,VALID,917.154,VALID,0,VALID,100,VALID,0.118866,VALID,18.0452,VALID,347,VALID,0.469308,
2006-01-19, 02:59:01,VALID,917.153,VALID,0,VALID,100,VALID,0.152827,VALID,18.0681,VALID,347,VALID,0.563244,
2006-01-19, 03:00:01,VALID,917.16,VALID,0,VALID,100,VALID,0.169808,VALID,18.0743,VALID,347,VALID,0.379724,
2006-01-19, 03:01:01,VALID,917.161,VALID,0,VALID,100,VALID,0.169808,VALID,18.0711,VALID,342,VALID,0.643164,
2006-01-19, 03:02:01,VALID,917.172,VALID,0,VALID,100,VALID,0.20377,VALID,18.0845,VALID,341,VALID,0.0892079,
2006-01-19, 03:03:01,VALID,917.182,VALID,0,VALID,100,VALID,0.20377,VALID,18.0683,VALID,341,VALID,0,
2006-01-19, 03:04:01,VALID,917.168,VALID,0,VALID,100,VALID,0.20377,VALID,18.0261,VALID,341,VALID,0.0584077,
2006-01-19, 03:05:01,VALID,917.174,VALID,0,VALID,100,VALID,0.135847,VALID,18.0392,VALID,341,VALID,0.0766715,
2006-01-19, 03:06:01,VALID,917.186,VALID,0,VALID,100,VALID,0.152827,VALID,18.0288,VALID,341,VALID,0,
2006-01-19, 03:07:01,VALID,917.197,VALID,0,VALID,100,VALID,0.135847,VALID,18.0395,VALID,341,VALID,0,
2006-01-19, 03:08:01,VALID,917.193,VALID,0,VALID,100,VALID,0.169808,VALID,18.0261,VALID,341,VALID,0,
2006-01-19, 03:09:01,VALID,917.18,VALID,0,VALID,100,VALID,0.186789,VALID,18.0069,VALID,341,VALID,0,
2006-01-19, 03:10:01,VALID,917.193,VALID,0,VALID,100,VALID,0.169808,VALID,18.0004,VALID,341,VALID,0,
2006-01-19, 03:11:01,VALID,917.203,VALID,0,VALID,100,VALID,0.20377,VALID,17.9868,VALID,341,VALID,0,
2006-01-19, 03:12:01,VALID,917.217,VALID,0,VALID,100,VALID,0.20377,VALID,17.9871,VALID,341,VALID,0,
2006-01-19, 03:13:01,VALID,917.21,VALID,0,VALID,100,VALID,0.220751,VALID,17.9871,VALID,341,VALID,0,
2006-01-19, 03:14:01,VALID,917.228,VALID,0,VALID,100,VALID,0.186789,VALID,17.9935,VALID,341,VALID,0,
2006-01-19, 03:15:01,VALID,917.228,VALID,0,VALID,100,VALID,0.20377,VALID,18,VALID,341,VALID,0,
2006-01-19, 03:16:01,VALID,917.242,VALID,0,VALID,100,VALID,0.186789,VALID,17.9942,VALID,341,VALID,0,
2006-01-19, 03:17:01,VALID,917.244,VALID,0,VALID,100,VALID,0.169808,VALID,17.9582,VALID,341,VALID,0,
2006-01-19, 03:18:01,VALID,917.273,VALID,0,VALID,100,VALID,0.169808,VALID,17.9587,VALID,341,VALID,0,
2006-01-19, 03:19:01,VALID,917.285,VALID,0,VALID,100,VALID,0.20377,VALID,17.9517,VALID,341,VALID,0,
2006-01-19, 03:20:01,VALID,917.308,VALID,0,VALID,100,VALID,0.135847,VALID,17.9584,VALID,341,VALID,0,
2006-01-19, 03:21:00,VALID,917.299,VALID,0,VALID,100,VALID,0.101885,VALID,17.9693,VALID,341,VALID,0,
2006-01-19, 03:22:00,VALID,917.313,VALID,0,VALID,100,VALID,0.0679233,VALID,17.9695,VALID,341,VALID,0,
2006-01-19, 03:23:00,VALID,917.317,VALID,0,VALID,100,VALID,0.0849042,VALID,17.9464,VALID,341,VALID,0,
2006-01-19, 03:24:00,VALID,917.337,VALID,0,VALID,100,VALID,0.0679233,VALID,17.9471,VALID,341,VALID,0,
2006-01-19, 03:25:00,VALID,917.326,VALID,0,VALID,100,VALID,0.101885,VALID,17.9501,VALID,341,VALID,0,
2006-01-19, 03:26:00,VALID,917.319,VALID,0,VALID,100,VALID,0.0679233,VALID,17.9245,VALID,341,VALID,0,
2006-01-19, 03:27:00,VALID,917.318,VALID,0,VALID,100,VALID,0.118866,VALID,17.8757,VALID,341,VALID,0,
2006-01-19, 03:28:00,VALID,917.305,VALID,0,VALID,100,VALID,0.0509425,VALID,17.8533,VALID,341,VALID,0,
2006-01-19, 03:29:00,VALID,917.275,VALID,0,VALID,100,VALID,0.0679233,VALID,17.8178,VALID,341,VALID,0,
2006-01-19, 03:30:00,VALID,917.274,VALID,0,VALID,100,VALID,0.0679233,VALID,17.8014,VALID,341,VALID,0,
2006-01-19, 03:31:00,VALID,917.267,VALID,0,VALID,100,VALID,0.0849042,VALID,17.7887,VALID,341,VALID,0,
2006-01-19, 03:32:00,VALID,917.256,VALID,0,VALID,100,VALID,0.0509425,VALID,17.7885,VALID,341,VALID,0,
2006-01-19, 03:33:00,VALID,917.233,VALID,0,VALID,100,VALID,0.0679233,VALID,17.818,VALID,341,VALID,0,
2006-01-19, 03:34:00,VALID,917.22,VALID,0,VALID,100,VALID,0.0509425,VALID,17.8337,VALID,341,VALID,0,
2006-01-19, 03:35:00,VALID,917.186,VALID,0,VALID,100,VALID,0.135847,VALID,17.8529,VALID,341,VALID,0,
2006-01-19, 03:36:00,VALID,917.176,VALID,0,VALID,100,VALID,0.186789,VALID,17.8875,VALID,341,VALID,0,
2006-01-19, 03:37:00,VALID,917.164,VALID,0,VALID,100,VALID,0.169808,VALID,17.9069,VALID,341,VALID,0,
2006-01-19, 03:38:00,VALID,917.143,VALID,0,VALID,100,VALID,0.186789,VALID,17.9139,VALID,341,VALID,0,
2006-01-19, 03:39:00,VALID,917.129,VALID,0,VALID,100,VALID,0.220751,VALID,17.9261,VALID,341,VALID,0,
2006-01-19, 03:40:00,VALID,917.117,VALID,0,VALID,100,VALID,0.186789,VALID,17.9293,VALID,341,VALID,0.147852,
2006-01-19, 03:41:00,VALID,917.12,VALID,0,VALID,100,VALID,0.169808,VALID,17.9746,VALID,341,VALID,0.186547,
2006-01-19, 03:42:00,VALID,917.126,VALID,0,VALID,100,VALID,0.152827,VALID,18.0002,VALID,341,VALID,0.051669,
2006-01-19, 03:43:00,VALID,917.128,VALID,0,VALID,100,VALID,0.169808,VALID,18.0263,VALID,341,VALID,0,
2006-01-19, 03:44:00,VALID,917.113,VALID,0,VALID,100,VALID,0.135847,VALID,18.0265,VALID,341,VALID,0,